User: anonymous   Login
Location: Muenchen
(48.1800°N, 11.5800°E)
Time: 05:11:04
(UTC+02:00)
Language:

Sich 1 Rocket - Orbit

View from above orbital plane
View from above orbital plane
View from above satellite
View from above satellite

Ground track
Ground track

The orbit data is extracted from the following two-line orbital elements,

1 23659U 95046C   15090.22571154  .00000523  00000-0  68910-4 0  9999
2 23659 082.5321 335.9718 0025895 003.3197 116.1682 14.78010526 55049
Epoch (UTC): 31 March 2015 05:25:01
Eccentricity: 0.0025895
inclination: 82.5321°
perigee height: 617 km
apogee height: 654 km
right ascension of ascending node: 335.9718°
argument of perigee: 3.3197°
revolutions per day: 14.78010526
mean anomaly at epoch: 116.1682°
orbit number at epoch: 5504

The dashed part of the orbit path shows where the satellite is in the earth's shadow,  

DLR